Regional Weather Roundup
Issued by NWS Cleveland, OH

Home | Current Version | Previous Version | Graphics & Text | Print | Product List | Glossary On
Versions: 1 2 3 4 5 6 7 8 9 10 11 12 13 14 15 16 17 18 19 20 21 22 23 24 25 26 27 28 29 30 31 32 33 34 35 36 37 38 39 40 41 42 43 44 45 46 47 48 49 50
000
ASUS41 KCLE 221610
RWRCLE
OHIO REGIONAL WEATHER ROUNDUP
NATIONAL WEATHER SERVICE CLEVELAND, OH
1200 PM EDT MON MAY 22 2017

NOTE: "FAIR" INDICATES FEW OR NO CLOUDS BELOW 12,000 FEET WITH NO
SIGNIFICANT WEATHER AND/OR OBSTRUCTIONS TO VISIBILITY.

OHZ001>008-015>018-024>027-034-035-043-044-221700-
   NORTHWEST OHIO

CITY           SKY/WX    TMP DP  RH WIND       PRES   REMARKS
DEFIANCE       CLOUDY    60  40  47 SW10G20   30.06S
FINDLAY        PTSUNNY   61  44  53 W16G24    30.07F
TOLEDO EXPRESS MOSUNNY   61  43  51 W15G24    30.05R
TOLEDO EXEC    MOSUNNY   60  44  55 SW15      30.06S
LIMA           SUNNY     60  47  61 W14       30.08F
$$

OHZ009>014-019>023-028>033-038-089-221700-
   NORTHEAST OHIO

CITY           SKY/WX    TMP DP  RH WIND       PRES   REMARKS
CLE-HOPKINS    CLOUDY    61  43  51 W16G24    30.09R
CLE-LAKEFRONT  CLOUDY    58  45  62 W16       30.06R
CUY CO. ARPT   PTSUNNY   59  43  55 W15G28    30.06S
LORAIN-ELYRIA  PTSUNNY   57  41  55 W16G24    30.08R
ASHTABULA      CLOUDY    55  45  68 W16       30.07R
AKRON-CANTON   PTSUNNY   59  43  55 W12G22    30.08R
WOOSTER        MOSUNNY   58  43  57 W14       30.09S
MANSFIELD      MOSUNNY   57  43  59 W9G18     30.09F
YOUNGSTOWN     PTSUNNY   59  44  57 W14       30.05S
$$

OHZ042-051>053-060>062-070>072-077>081-221700-
  SOUTHWEST OHIO

CITY           SKY/WX    TMP DP  RH WIND       PRES   REMARKS
CINC-COVINGTON PTSUNNY   63  43  48 NW13      30.14F
CINC-LUNKEN    MOSUNNY   64  46  52 VRB6      30.15F
HAMILTON       CLOUDY    63  44  50 MISG      30.15F
DAYTON         PTSUNNY   60  43  53 W10       30.13F
WRIGHT-PAT AFB SUNNY     60  43  53 W9        30.12F
DAYTON GENERAL CLOUDY    61  43  51 W9        30.13F
WILMINGTON     MOSUNNY   59  45  59 W8        30.13F
$$

OHZ036-037-039>041-045>050-054>059-063>069-073>076-082>088-221700-
  CENTRAL AND SOUTHEAST OHIO

CITY           SKY/WX    TMP DP  RH WIND       PRES   REMARKS
COLUMBUS       PTSUNNY   61  44  53 W14       30.11F
OSU AIRPORT    SUNNY     60  45  57 W12G21    30.11F
BOLTON FIELD   SUNNY     61  45  55 W10       30.13F
RICKENBACK AFB MOSUNNY   59  44  56 W7        30.13S
NEWARK         SUNNY     62  44  51 W9        30.10F
MARION         MOSUNNY   60  42  51 W14G23    30.10F
LANCASTER      CLOUDY    62  45  53 W8        30.13F
ZANESVILLE     SUNNY     62  43  49 W12G20    30.10F
NEW PHILLY     NOT AVBL
$$




USA.gov is the U.S. government's official web portal to all federal, state and local government web resources and services.